Location: ????????
(60.5616°N, 46.8254°E)
Time: 08:02:16
(UTC+00:00)

COSMOS 2487 - Pass Details

Date: 18 February 2020
Orbit: 443 x 445 km, 74.7° (Epoch: 27 March)

Event Time Altitude Azimuth Distance (km) Brightness Sun altitude
Rises 16:16:55 0° 329° (NNW) 2,458 6.8 -18.7°
Reaches altitude 10° 16:19:01 10° 331° (NNW) 1,582 5.7 -19.0°
Maximum altitude 16:22:29 73° 56° (NE) 473 2.3 -19.4°
Enters shadow 16:22:37 71° 79° (E) 477 2.2 -19.4°
